User: anonymous   Login
Location: Unspecified
(0.0000°N, 0.0000°E)
Time: 09:21:47
(UTC+00:00)
Language:

COSMOS-2414 - Orbit

View from above orbital plane
View from above orbital plane
View from above satellite
View from above satellite

Ground track
Ground track

The orbit data is extracted from the following two-line orbital elements,

1 28521U 05002A   17328.14559896  .00000023  00000-0  62593-5 0  9998
2 28521  82.9508 247.8834 0038592 243.2436 116.4779 13.87592060650466
Epoch (UTC): 24 November 2017 03:29:39
Eccentricity: 0.0038592
inclination: 82.9508°
perigee height: 909 km
apogee height: 965 km
right ascension of ascending node: 247.8834°
argument of perigee: 243.2436°
revolutions per day: 13.87592060
mean anomaly at epoch: 116.4779°
orbit number at epoch: 65046

The dashed part of the orbit path shows where the satellite is in the earth's shadow,  

DLR